SBD1414 KDAB-KFLL

Flight info

Callsign SBD1414
Flight time N/A
Altitude 27000
Route ILIND JIPOD CUUDA3
Aircraft B738/M-SDE2E3FGHIRWXY/LB1

Departure

Time 2026-04-21 07:11
Airport Daytona Beach International Airport (KDAB)

Arrival

Time N/A
Airport Fort Lauderdale Hollywood International Airport (KFLL)
Time Latitude Longitude Altitude Speed Heading
2026-04-21 06:49 29.18312 -81.06049 31 ft 0 kts 329°
2026-04-21 07:02 29.18308 -81.06048 31 ft 0 kts 329°
2026-04-21 07:02 29.18299 -81.06040 31 ft 2 kts 306°
2026-04-21 07:02 29.18294 -81.06024 31 ft 2 kts 271°
2026-04-21 07:03 29.18298 -81.06007 31 ft 2 kts 236°
2026-04-21 07:03 29.18309 -81.05996 31 ft 2 kts 202°
2026-04-21 07:03 29.18316 -81.05994 31 ft 1 kts 186°
2026-04-21 07:03 29.18320 -81.05993 31 ft 0 kts 190°
2026-04-21 07:06 29.18304 -81.05997 31 ft 6 kts 191°
2026-04-21 07:06 29.18238 -81.06034 31 ft 14 kts 242°
2026-04-21 07:06 29.18235 -81.06180 31 ft 22 kts 231°
2026-04-21 07:07 29.18078 -81.06162 31 ft 24 kts 207°
2026-04-21 07:07 29.17997 -81.06325 31 ft 23 kts 245°
2026-04-21 07:07 29.17932 -81.06488 31 ft 21 kts 245°
2026-04-21 07:07 29.17869 -81.06640 31 ft 20 kts 246°
2026-04-21 07:08 29.17813 -81.06782 31 ft 18 kts 245°
2026-04-21 07:08 29.17761 -81.06912 31 ft 17 kts 245°
2026-04-21 07:08 29.17712 -81.07031 31 ft 15 kts 245°
2026-04-21 07:08 29.17668 -81.07141 31 ft 14 kts 245°
2026-04-21 07:09 29.17628 -81.07240 31 ft 13 kts 245°
2026-04-21 07:09 29.17592 -81.07329 31 ft 11 kts 243°
2026-04-21 07:09 29.17555 -81.07404 31 ft 10 kts 240°
2026-04-21 07:09 29.17516 -81.07482 31 ft 13 kts 241°
2026-04-21 07:10 29.17464 -81.07587 31 ft 16 kts 240°
2026-04-21 07:10 29.17363 -81.07641 31 ft 20 kts 160°
2026-04-21 07:10 29.17361 -81.07513 31 ft 17 kts 64°
2026-04-21 07:10 29.17432 -81.07341 31 ft 41 kts 65°
2026-04-21 07:11 29.17662 -81.06775 31 ft 115 kts 65°
2026-04-21 07:11 29.18095 -81.05714 166 ft 167 kts 65°
2026-04-21 07:11 29.18594 -81.04484 954 ft 175 kts 68°
2026-04-21 07:11 29.18654 -81.03162 1930 ft 179 kts 105°
2026-04-21 07:12 29.17845 -81.02029 2498 ft 201 kts 141°
2026-04-21 07:12 29.16487 -81.01391 3022 ft 224 kts 161°
2026-04-21 07:12 29.14912 -81.00953 3562 ft 240 kts 160°
2026-04-21 07:12 29.13253 -81.00389 4134 ft 255 kts 158°
2026-04-21 07:13 29.11524 -80.99729 4678 ft 271 kts 158°
2026-04-21 07:13 29.09690 -80.99017 5331 ft 283 kts 158°
2026-04-21 07:13 29.07819 -80.98299 6135 ft 288 kts 159°
2026-04-21 07:13 29.05935 -80.97584 6953 ft 291 kts 159°
2026-04-21 07:14 29.03997 -80.96849 7775 ft 295 kts 160°
2026-04-21 07:14 29.02034 -80.96104 8599 ft 298 kts 161°
2026-04-21 07:14 29.00083 -80.95363 9347 ft 302 kts 161°
2026-04-21 07:14 28.98076 -80.94600 10165 ft 304 kts 162°
2026-04-21 07:15 28.96039 -80.93826 10738 ft 314 kts 162°
2026-04-21 07:15 28.93929 -80.93025 11107 ft 332 kts 162°
2026-04-21 07:15 28.91658 -80.92164 11512 ft 348 kts 162°
2026-04-21 07:15 28.89324 -80.91279 11906 ft 363 kts 162°
2026-04-21 07:16 28.86860 -80.90345 12280 ft 378 kts 162°
2026-04-21 07:16 28.84320 -80.89382 12569 ft 395 kts 162°
2026-04-21 07:16 28.81662 -80.88375 12893 ft 410 kts 162°
2026-04-21 07:16 28.78912 -80.87333 13559 ft 413 kts 162°
2026-04-21 07:17 28.76195 -80.86303 14197 ft 417 kts 163°
2026-04-21 07:17 28.73415 -80.85229 14826 ft 422 kts 161°
2026-04-21 07:17 28.70715 -80.83994 15503 ft 425 kts 156°
2026-04-21 07:17 28.68096 -80.82404 16116 ft 430 kts 149°
2026-04-21 07:18 28.65578 -80.80511 16721 ft 435 kts 145°
2026-04-21 07:18 28.63138 -80.78468 17304 ft 439 kts 143°
2026-04-21 07:18 28.60711 -80.76331 17832 ft 445 kts 142°
2026-04-21 07:18 28.58269 -80.74149 18366 ft 450 kts 142°
2026-04-21 07:19 28.55774 -80.71925 18984 ft 452 kts 143°
2026-04-21 07:19 28.53300 -80.69741 19493 ft 457 kts 143°
2026-04-21 07:19 28.50752 -80.67514 20013 ft 462 kts 144°
2026-04-21 07:19 28.48197 -80.65301 20536 ft 466 kts 144°
2026-04-21 07:20 28.45591 -80.63052 21109 ft 469 kts 144°
2026-04-21 07:20 28.42996 -80.60819 21545 ft 475 kts 145°
2026-04-21 07:20 28.40317 -80.58517 22004 ft 479 kts 145°
2026-04-21 07:20 28.37677 -80.56249 22471 ft 484 kts 145°
2026-04-21 07:21 28.34960 -80.53917 22975 ft 487 kts 145°
2026-04-21 07:21 28.32244 -80.51588 23416 ft 491 kts 146°
2026-04-21 07:21 28.29540 -80.49268 23915 ft 494 kts 146°
2026-04-21 07:21 28.26794 -80.46915 24387 ft 497 kts 146°
2026-04-21 07:22 28.23999 -80.44522 24809 ft 502 kts 146°
2026-04-21 07:22 28.21230 -80.42151 25280 ft 504 kts 146°
2026-04-21 07:22 28.18421 -80.39747 25724 ft 507 kts 146°
2026-04-21 07:22 28.15622 -80.37350 26345 ft 505 kts 146°
2026-04-21 07:23 28.12779 -80.34986 26985 ft 501 kts 149°
2026-04-21 07:23 28.09882 -80.32887 27177 ft 500 kts 156°
2026-04-21 07:23 28.06722 -80.31351 27196 ft 489 kts 167°
2026-04-21 07:23 28.03477 -80.30303 27200 ft 482 kts 172°
2026-04-21 07:24 28.00221 -80.29475 27201 ft 480 kts 174°
2026-04-21 07:24 27.96890 -80.28734 27196 ft 480 kts 175°
2026-04-21 07:24 27.93609 -80.28039 27196 ft 481 kts 175°
2026-04-21 07:24 27.90311 -80.27341 27196 ft 481 kts 175°
2026-04-21 07:25 27.87050 -80.26640 27194 ft 480 kts 175°
2026-04-21 07:25 27.83768 -80.25919 27191 ft 481 kts 175°
2026-04-21 07:25 27.80433 -80.25173 27190 ft 482 kts 175°
2026-04-21 07:25 27.77181 -80.24434 27190 ft 483 kts 174°
2026-04-21 07:26 27.73868 -80.23672 27189 ft 482 kts 174°
2026-04-21 07:26 27.70597 -80.22912 27192 ft 480 kts 174°
2026-04-21 07:26 27.67340 -80.22153 27191 ft 482 kts 174°
2026-04-21 07:26 27.64032 -80.21381 27190 ft 483 kts 174°
2026-04-21 07:27 27.60722 -80.20607 27188 ft 480 kts 174°
2026-04-21 07:27 27.57458 -80.19843 27187 ft 481 kts 174°
2026-04-21 07:27 27.54193 -80.19080 27187 ft 483 kts 174°
2026-04-21 07:27 27.50908 -80.18312 27188 ft 481 kts 174°
2026-04-21 07:28 27.47618 -80.17543 27186 ft 482 kts 174°
2026-04-21 07:28 27.44348 -80.16780 27184 ft 481 kts 174°
2026-04-21 07:28 27.41062 -80.16013 27160 ft 479 kts 174°
2026-04-21 07:28 27.37828 -80.15256 26815 ft 473 kts 174°
2026-04-21 07:29 27.34584 -80.14497 26128 ft 473 kts 174°
2026-04-21 07:29 27.31366 -80.13750 25261 ft 476 kts 174°
2026-04-21 07:29 27.28089 -80.12993 24576 ft 484 kts 173°
2026-04-21 07:29 27.24811 -80.12235 23931 ft 480 kts 173°
2026-04-21 07:30 27.21552 -80.11478 23201 ft 478 kts 173°
2026-04-21 07:30 27.18295 -80.10721 22455 ft 476 kts 172°
2026-04-21 07:30 27.15102 -80.09976 21705 ft 466 kts 172°
2026-04-21 07:30 27.11963 -80.09242 20974 ft 457 kts 172°
2026-04-21 07:31 27.08871 -80.08521 20230 ft 448 kts 172°
2026-04-21 07:31 27.05852 -80.07817 19516 ft 439 kts 172°
2026-04-21 07:31 27.02933 -80.07138 19035 ft 425 kts 172°
2026-04-21 07:31 27.00070 -80.06473 18825 ft 413 kts 172°
2026-04-21 07:32 26.97211 -80.05814 18693 ft 425 kts 172°
2026-04-21 07:32 26.94242 -80.05137 18499 ft 432 kts 171°
2026-04-21 07:32 26.91350 -80.04472 18257 ft 422 kts 171°
2026-04-21 07:32 26.88489 -80.03812 17655 ft 421 kts 171°
2026-04-21 07:33 26.85580 -80.03140 16907 ft 422 kts 171°
2026-04-21 07:33 26.82733 -80.02484 16414 ft 416 kts 171°
2026-04-21 07:33 26.79903 -80.01830 15869 ft 412 kts 171°
2026-04-21 07:33 26.77119 -80.01188 15310 ft 408 kts 171°
2026-04-21 07:34 26.74367 -80.00554 14764 ft 404 kts 171°
2026-04-21 07:34 26.71627 -79.99921 14240 ft 400 kts 171°
2026-04-21 07:34 26.68895 -79.99293 13593 ft 398 kts 171°
2026-04-21 07:34 26.66186 -79.98670 13143 ft 392 kts 171°
2026-04-21 07:35 26.63554 -79.98064 12589 ft 389 kts 170°
2026-04-21 07:35 26.60919 -79.97459 12332 ft 377 kts 170°
2026-04-21 07:35 26.58387 -79.96876 12173 ft 363 kts 170°
2026-04-21 07:35 26.55981 -79.96322 12010 ft 350 kts 170°
2026-04-21 07:36 26.53611 -79.95778 11833 ft 339 kts 169°
2026-04-21 07:36 26.51342 -79.95258 11707 ft 327 kts 170°
2026-04-21 07:36 26.49140 -79.94754 11585 ft 315 kts 169°
2026-04-21 07:36 26.47043 -79.94274 11482 ft 304 kts 169°
2026-04-21 07:37 26.44994 -79.93806 11301 ft 296 kts 169°
2026-04-21 07:37 26.42973 -79.93345 10969 ft 295 kts 169°
2026-04-21 07:37 26.40950 -79.92883 10611 ft 294 kts 169°
2026-04-21 07:37 26.38951 -79.92590 10268 ft 292 kts 180°
2026-04-21 07:38 26.36958 -79.92992 9917 ft 288 kts 204°
2026-04-21 07:38 26.35213 -79.94035 9555 ft 287 kts 213°
2026-04-21 07:38 26.33534 -79.95231 9227 ft 285 kts 214°
2026-04-21 07:38 26.31845 -79.96421 8839 ft 286 kts 212°
2026-04-21 07:39 26.30137 -79.97570 8518 ft 285 kts 211°
2026-04-21 07:39 26.28437 -79.98678 8173 ft 284 kts 210°
2026-04-21 07:39 26.26721 -79.99780 8001 ft 280 kts 210°
2026-04-21 07:39 26.25016 -80.00867 8000 ft 284 kts 210°
2026-04-21 07:40 26.23314 -80.01956 7995 ft 284 kts 210°
2026-04-21 07:40 26.21594 -80.03064 7994 ft 284 kts 210°
2026-04-21 07:40 26.19888 -80.04170 7994 ft 284 kts 212°
2026-04-21 07:40 26.18306 -80.05509 7995 ft 283 kts 227°
2026-04-21 07:41 26.17265 -80.07330 7996 ft 281 kts 249°
2026-04-21 07:41 26.16655 -80.09394 7997 ft 281 kts 256°
2026-04-21 07:41 26.16129 -80.11475 7996 ft 279 kts 256°
2026-04-21 07:41 26.15576 -80.13550 8009 ft 280 kts 255°
2026-04-21 07:42 26.15106 -80.15646 8001 ft 280 kts 263°
2026-04-21 07:42 26.14964 -80.17806 7990 ft 277 kts 272°
2026-04-21 07:42 26.14999 -80.19943 7994 ft 278 kts 274°
2026-04-21 07:42 26.15059 -80.22060 7803 ft 274 kts 274°
2026-04-21 07:43 26.15102 -80.24189 7440 ft 277 kts 273°
2026-04-21 07:43 26.15127 -80.26426 7169 ft 306 kts 272°
2026-04-21 07:43 26.15143 -80.28813 6739 ft 306 kts 272°
2026-04-21 07:43 26.15149 -80.31118 6475 ft 291 kts 272°
2026-04-21 07:44 26.15151 -80.33281 6274 ft 275 kts 272°
2026-04-21 07:44 26.15148 -80.35376 6010 ft 264 kts 270°
2026-04-21 07:44 26.14727 -80.37314 5736 ft 256 kts 242°
2026-04-21 07:44 26.13582 -80.38716 5563 ft 240 kts 214°
2026-04-21 07:45 26.12143 -80.39573 5345 ft 227 kts 200°
2026-04-21 07:45 26.10646 -80.40032 5020 ft 219 kts 180°
2026-04-21 07:45 26.09217 -80.39824 4905 ft 196 kts 156°
2026-04-21 07:45 26.08023 -80.39258 4763 ft 181 kts 145°
2026-04-21 07:46 26.07041 -80.38490 4588 ft 164 kts 127°
2026-04-21 07:46 26.06377 -80.37527 4281 ft 152 kts 112°
2026-04-21 07:46 26.05925 -80.36503 3905 ft 145 kts 103°
2026-04-21 07:46 26.05670 -80.35471 3610 ft 136 kts 90°
2026-04-21 07:47 26.05639 -80.34441 3353 ft 132 kts 81°
2026-04-21 07:47 26.05750 -80.33447 3155 ft 130 kts 73°
2026-04-21 07:47 26.06227 -80.32629 2981 ft 128 kts 45°
2026-04-21 07:47 26.06817 -80.31887 2749 ft 128 kts 54°
2026-04-21 07:48 26.07272 -80.31058 2552 ft 124 kts 60°
2026-04-21 07:48 26.07607 -80.30164 2487 ft 127 kts 70°
2026-04-21 07:48 26.07730 -80.29171 2496 ft 131 kts 81°
2026-04-21 07:48 26.07767 -80.28162 2480 ft 129 kts 83°
2026-04-21 07:49 26.07721 -80.27187 2383 ft 127 kts 87°
2026-04-21 07:49 26.07668 -80.26186 2225 ft 126 kts 85°
2026-04-21 07:49 26.07642 -80.25206 2042 ft 124 kts 84°
2026-04-21 07:49 26.07672 -80.24273 1857 ft 122 kts 78°
2026-04-21 07:50 26.07720 -80.23324 1672 ft 124 kts 81°
2026-04-21 07:50 26.07734 -80.22370 1473 ft 123 kts 87°
2026-04-21 07:50 26.07681 -80.21438 1337 ft 118 kts 85°
2026-04-21 07:50 26.07673 -80.20519 1170 ft 120 kts 83°
2026-04-21 07:51 26.07676 -80.19573 944 ft 122 kts 86°
2026-04-21 07:51 26.07713 -80.18631 731 ft 125 kts 83°
2026-04-21 07:51 26.07692 -80.17667 493 ft 126 kts 83°
2026-04-21 07:51 26.07692 -80.16688 209 ft 129 kts 84°
2026-04-21 07:52 26.07684 -80.15709 43 ft 120 kts 84°
2026-04-21 07:52 26.07688 -80.14849 12 ft 95 kts 87°
2026-04-21 07:52 26.07689 -80.14633 11 ft 75 kts 90°